Time,TemperatureF,DewpointF,PressureIn,WindDirection,WindDirectionDegrees,WindSpeedMPH,WindSpeedGustMPH,Humidity,HourlyPrecipIn,Conditions,Clouds,dailyrainin,SoftwareType,DateUTC
2013-01-02 00:02:00,24.0,19.0,-100.00,North,-999,0.0,0.0,81,-99.99,,,0.00,,2013-01-02 07:02:00,
2013-01-02 00:12:00,24.0,19.0,-100.00,North,-999,0.0,0.0,81,-99.99,,,0.00,,2013-01-02 07:12:00,
2013-01-02 00:52:00,23.0,19.0,-100.00,NE,40,1.0,2.0,83,-99.99,,,0.00,,2013-01-02 07:52:00,
2013-01-02 01:02:00,23.0,19.0,-100.00,NE,40,1.0,2.0,83,-99.99,,,0.00,,2013-01-02 08:02:00,
2013-01-02 01:11:00,24.0,20.0,-100.00,NNW,330,1.0,3.0,84,-99.99,,,0.00,,2013-01-02 08:11:00,
2013-01-02 01:22:00,24.0,20.0,-100.00,NNW,330,1.0,3.0,84,-99.99,,,0.00,,2013-01-02 08:22:00,
2013-01-02 01:32:00,24.0,20.0,-100.00,NNW,330,1.0,3.0,84,-99.99,,,0.00,,2013-01-02 08:32:00,
2013-01-02 01:42:00,24.0,20.0,-100.00,NNW,330,1.0,3.0,84,-99.99,,,0.00,,2013-01-02 08:42:00,
2013-01-02 01:52:00,24.0,20.0,-100.00,NNW,335,1.0,2.0,85,-99.99,,,0.00,,2013-01-02 08:52:00,
2013-01-02 02:02:00,24.0,20.0,-100.00,NNW,335,1.0,2.0,85,-99.99,,,0.00,,2013-01-02 09:02:00,
2013-01-02 02:12:00,24.0,20.0,-100.00,NW,305,2.0,3.0,85,-99.99,,,0.00,,2013-01-02 09:12:00,
2013-01-02 02:22:00,24.0,20.0,-100.00,NW,305,2.0,3.0,85,-99.99,,,0.00,,2013-01-02 09:22:00,
2013-01-02 02:32:00,24.0,20.0,-100.00,NW,305,2.0,3.0,85,-99.99,,,0.00,,2013-01-02 09:32:00,
2013-01-02 02:42:00,24.0,20.0,-100.00,NW,305,2.0,3.0,85,-99.99,,,0.00,,2013-01-02 09:42:00,
2013-01-02 02:52:00,24.0,20.0,-100.00,North,0,1.0,4.0,83,-99.99,,,0.00,,2013-01-02 09:52:00,
2013-01-02 03:02:00,24.0,20.0,-100.00,North,0,1.0,4.0,83,-99.99,,,0.00,,2013-01-02 10:02:00,
2013-01-02 03:12:00,23.0,19.0,-100.00,WNW,285,3.0,4.0,83,-99.99,,,0.00,,2013-01-02 10:12:00,
2013-01-02 03:22:00,23.0,19.0,-100.00,WNW,285,3.0,4.0,83,-99.99,,,0.00,,2013-01-02 10:22:00,
2013-01-02 03:32:00,23.0,19.0,-100.00,WNW,285,3.0,4.0,83,-99.99,,,0.00,,2013-01-02 10:32:00,
2013-01-02 03:42:00,23.0,19.0,-100.00,WNW,285,3.0,4.0,83,-99.99,,,0.00,,2013-01-02 10:42:00,
2013-01-02 03:52:00,23.0,19.0,-100.00,WNW,290,3.0,4.0,83,-99.99,,,0.00,,2013-01-02 10:52:00,
2013-01-02 04:02:00,23.0,19.0,-100.00,WNW,290,3.0,4.0,83,-99.99,,,0.00,,2013-01-02 11:02:00,
2013-01-02 04:11:00,23.0,19.0,-100.00,NW,310,1.0,4.0,84,-99.99,,,0.00,,2013-01-02 11:11:00,
2013-01-02 04:22:00,23.0,19.0,-100.00,NW,310,1.0,4.0,84,-99.99,,,0.00,,2013-01-02 11:22:00,
2013-01-02 04:32:00,23.0,19.0,-100.00,NW,310,1.0,4.0,84,-99.99,,,0.00,,2013-01-02 11:32:00,
2013-01-02 04:42:00,23.0,19.0,-100.00,NW,310,1.0,4.0,84,-99.99,,,0.00,,2013-01-02 11:42:00,
2013-01-02 04:52:00,23.0,19.0,-100.00,WNW,300,3.0,4.0,84,-99.99,,,0.00,,2013-01-02 11:52:00,
2013-01-02 05:02:00,23.0,19.0,-100.00,WNW,300,3.0,4.0,84,-99.99,,,0.00,,2013-01-02 12:02:00,
2013-01-02 05:12:00,23.0,19.0,-100.00,WNW,295,1.0,3.0,84,-99.99,,,0.00,,2013-01-02 12:12:00,
2013-01-02 05:22:00,23.0,19.0,-100.00,WNW,295,1.0,3.0,84,-99.99,,,0.00,,2013-01-02 12:22:00,
2013-01-02 05:32:00,23.0,19.0,-100.00,WNW,295,1.0,3.0,84,-99.99,,,0.00,,2013-01-02 12:32:00,
2013-01-02 05:42:00,23.0,19.0,-100.00,WNW,295,1.0,3.0,84,-99.99,,,0.00,,2013-01-02 12:42:00,
2013-01-02 05:52:00,23.0,19.0,-100.00,NNW,330,2.0,3.0,85,-99.99,,,0.00,,2013-01-02 12:52:00,
2013-01-02 06:02:00,23.0,19.0,-100.00,NNW,330,2.0,3.0,85,-99.99,,,0.00,,2013-01-02 13:02:00,
2013-01-02 06:12:00,23.0,19.0,-100.00,NW,305,0.0,3.0,85,-99.99,,,0.00,,2013-01-02 13:12:00,
2013-01-02 06:22:00,23.0,19.0,-100.00,NW,305,0.0,3.0,85,-99.99,,,0.00,,2013-01-02 13:22:00,
2013-01-02 06:32:00,23.0,19.0,-100.00,NW,305,0.0,3.0,85,-99.99,,,0.00,,2013-01-02 13:32:00,
2013-01-02 06:42:00,23.0,19.0,-100.00,NW,305,0.0,3.0,85,-99.99,,,0.00,,2013-01-02 13:42:00,
2013-01-02 06:52:00,23.0,19.0,-100.00,NNW,335,3.0,3.0,85,-99.99,,,0.00,,2013-01-02 13:52:00,
2013-01-02 07:02:00,23.0,19.0,-100.00,NNW,335,3.0,3.0,85,-99.99,,,0.00,,2013-01-02 14:02:00,
2013-01-02 07:12:00,23.0,19.0,-100.00,NNW,330,3.0,3.0,85,-99.99,,,0.00,,2013-01-02 14:12:00,
2013-01-02 07:22:00,23.0,19.0,-100.00,NNW,330,3.0,3.0,85,-99.99,,,0.00,,2013-01-02 14:22:00,
2013-01-02 07:32:00,23.0,19.0,-100.00,NNW,330,3.0,3.0,85,-99.99,,,0.00,,2013-01-02 14:32:00,
2013-01-02 07:42:00,23.0,19.0,-100.00,NNW,330,3.0,3.0,85,-99.99,,,0.00,,2013-01-02 14:42:00,
2013-01-02 07:53:00,23.0,19.0,-100.00,North,5,1.0,3.0,85,-99.99,,,0.00,,2013-01-02 14:53:00,
2013-01-02 08:02:00,23.0,19.0,-100.00,North,5,1.0,3.0,85,-99.99,,,0.00,,2013-01-02 15:02:00,
2013-01-02 08:12:00,22.0,18.0,-100.00,North,10,0.0,1.0,84,-99.99,,,0.00,,2013-01-02 15:12:00,
2013-01-02 08:20:00,23.0,19.0,-100.00,North,355,1.0,3.0,84,-99.99,,,0.00,,2013-01-02 15:20:00,
2013-01-02 08:22:00,22.0,18.0,-100.00,North,10,0.0,1.0,84,-99.99,,,0.00,,2013-01-02 15:22:00,
2013-01-02 08:33:00,22.0,18.0,-100.00,North,10,0.0,1.0,84,-99.99,,,0.00,,2013-01-02 15:33:00,
2013-01-02 08:42:00,22.0,18.0,-100.00,North,10,0.0,1.0,84,-99.99,,,0.00,,2013-01-02 15:42:00,
2013-01-02 08:52:00,23.0,19.0,-100.00,North,355,1.0,3.0,84,-99.99,,,0.00,,2013-01-02 15:52:00,
2013-01-02 09:03:00,23.0,19.0,-100.00,North,355,1.0,3.0,84,-99.99,,,0.00,,2013-01-02 16:03:00,
2013-01-02 09:12:00,23.0,19.0,-100.00,North,355,1.0,3.0,84,-99.99,,,0.00,,2013-01-02 16:12:00,
2013-01-02 09:21:00,23.0,19.0,-100.00,NW,315,1.0,2.0,84,-99.99,,,0.00,,2013-01-02 16:21:00,
2013-01-02 09:33:00,23.0,19.0,-100.00,North,0,2.0,3.0,84,-99.99,,,0.00,,2013-01-02 16:33:00,
2013-01-02 09:42:00,23.0,19.0,-100.00,North,0,2.0,3.0,84,-99.99,,,0.00,,2013-01-02 16:42:00,
2013-01-02 09:53:00,23.0,19.0,-100.00,NW,315,1.0,2.0,84,-99.99,,,0.00,,2013-01-02 16:53:00,
2013-01-02 10:03:00,23.0,19.0,-100.00,NW,315,1.0,2.0,84,-99.99,,,0.00,,2013-01-02 17:03:00,
2013-01-02 10:12:00,23.0,19.0,-100.00,NW,315,1.0,2.0,84,-99.99,,,0.00,,2013-01-02 17:12:00,
2013-01-02 10:33:00,24.0,20.0,-100.00,NW,320,1.0,3.0,83,-99.99,,,0.00,,2013-01-02 17:33:00,
2013-01-02 10:43:00,24.0,20.0,-100.00,NW,320,1.0,3.0,83,-99.99,,,0.00,,2013-01-02 17:43:00,
2013-01-02 10:53:00,24.0,19.0,-100.00,NNW,345,3.0,4.0,81,-99.99,,,0.00,,2013-01-02 17:53:00,
2013-01-02 11:02:00,24.0,19.0,-100.00,NNW,345,3.0,4.0,81,-99.99,,,0.00,,2013-01-02 18:02:00,
2013-01-02 11:12:00,24.0,19.0,-100.00,NNW,345,3.0,4.0,81,-99.99,,,0.00,,2013-01-02 18:12:00,
2013-01-02 11:20:00,26.0,19.0,-100.00,NW,325,3.0,5.0,74,-99.99,,,0.00,,2013-01-02 18:20:00,
2013-01-02 11:33:00,25.0,20.0,-100.00,NNW,340,1.0,2.0,79,-99.99,,,0.00,,2013-01-02 18:33:00,
2013-01-02 11:42:00,25.0,20.0,-100.00,NNW,340,1.0,2.0,79,-99.99,,,0.00,,2013-01-02 18:42:00,
2013-01-02 11:53:00,26.0,19.0,-100.00,NW,325,3.0,5.0,74,-99.99,,,0.00,,2013-01-02 18:53:00,
2013-01-02 12:02:00,26.0,19.0,-100.00,NW,325,3.0,5.0,74,-99.99,,,0.00,,2013-01-02 19:02:00,
2013-01-02 12:12:00,26.0,19.0,-100.00,NW,325,3.0,5.0,74,-99.99,,,0.00,,2013-01-02 19:12:00,
2013-01-02 12:20:00,27.0,18.0,-100.00,NNW,335,4.0,6.0,69,-99.99,,,0.00,,2013-01-02 19:20:00,
2013-01-02 12:32:00,27.0,18.0,-100.00,NW,325,2.0,3.0,71,-99.99,,,0.00,,2013-01-02 19:32:00,
2013-01-02 12:42:00,27.0,18.0,-100.00,NW,325,2.0,3.0,71,-99.99,,,0.00,,2013-01-02 19:42:00,
2013-01-02 12:52:00,27.0,18.0,-100.00,NNW,335,4.0,6.0,69,-99.99,,,0.00,,2013-01-02 19:52:00,
2013-01-02 13:02:00,27.0,18.0,-100.00,NNW,335,4.0,6.0,69,-99.99,,,0.00,,2013-01-02 20:02:00,
2013-01-02 13:12:00,27.0,18.0,-100.00,NNW,335,4.0,6.0,69,-99.99,,,0.00,,2013-01-02 20:12:00,
2013-01-02 13:20:00,27.0,16.0,-100.00,NW,310,6.0,6.0,63,-99.99,,,0.00,,2013-01-02 20:20:00,
2013-01-02 13:33:00,27.0,17.0,-100.00,NW,320,4.0,6.0,65,-99.99,,,0.00,,2013-01-02 20:33:00,
2013-01-02 13:42:00,27.0,17.0,-100.00,NW,320,4.0,6.0,65,-99.99,,,0.00,,2013-01-02 20:42:00,
2013-01-02 13:53:00,27.0,16.0,-100.00,NW,310,6.0,6.0,63,-99.99,,,0.00,,2013-01-02 20:53:00,
2013-01-02 14:03:00,27.0,16.0,-100.00,NW,310,6.0,6.0,63,-99.99,,,0.00,,2013-01-02 21:03:00,
2013-01-02 14:12:00,27.0,16.0,-100.00,NW,310,6.0,6.0,63,-99.99,,,0.00,,2013-01-02 21:12:00,
2013-01-02 14:20:00,27.0,15.0,-100.00,NW,320,3.0,5.0,60,-99.99,,,0.00,,2013-01-02 21:20:00,
2013-01-02 14:32:00,27.0,15.0,-100.00,WNW,285,4.0,7.0,60,-99.99,,,0.00,,2013-01-02 21:32:00,
2013-01-02 14:42:00,27.0,15.0,-100.00,WNW,285,4.0,7.0,60,-99.99,,,0.00,,2013-01-02 21:42:00,
2013-01-02 14:50:00,27.0,15.0,-100.00,WNW,295,1.0,3.0,59,-99.99,,,0.00,,2013-01-02 21:50:00,
2013-01-02 14:52:00,27.0,15.0,-100.00,NW,320,3.0,5.0,60,-99.99,,,0.00,,2013-01-02 21:52:00,
2013-01-02 15:02:00,27.0,15.0,-100.00,NW,320,3.0,5.0,60,-99.99,,,0.00,,2013-01-02 22:02:00,
2013-01-02 15:12:00,27.0,15.0,-100.00,NW,320,3.0,5.0,60,-99.99,,,0.00,,2013-01-02 22:12:00,
2013-01-02 15:32:00,27.0,15.0,-100.00,WNW,295,1.0,3.0,59,-99.99,,,0.00,,2013-01-02 22:32:00,
2013-01-02 15:42:00,27.0,15.0,-100.00,WNW,295,1.0,3.0,59,-99.99,,,0.00,,2013-01-02 22:42:00,
2013-01-02 16:33:00,26.0,14.0,-100.00,West,270,1.0,3.0,60,-99.99,,,0.00,,2013-01-02 23:33:00,
2013-01-02 16:42:00,26.0,14.0,-100.00,West,270,1.0,3.0,60,-99.99,,,0.00,,2013-01-02 23:42:00,
2013-01-02 16:52:00,26.0,14.0,-100.00,West,260,0.0,1.0,60,-99.99,,,0.00,,2013-01-02 23:52:00,
2013-01-02 17:02:00,26.0,14.0,-100.00,West,260,0.0,1.0,60,-99.99,,,0.00,,2013-01-03 00:02:00,
2013-01-02 17:12:00,25.0,14.0,-100.00,North,-999,0.0,0.0,61,-99.99,,,0.00,,2013-01-03 00:12:00,
2013-01-02 17:22:00,25.0,14.0,-100.00,North,-999,0.0,0.0,61,-99.99,,,0.00,,2013-01-03 00:22:00,
2013-01-02 17:37:00,25.0,14.0,-100.00,North,-999,0.0,0.0,61,-99.99,,,0.00,,2013-01-03 00:37:00,
2013-01-02 17:52:00,25.0,14.0,-100.00,South,180,0.0,2.0,62,-99.99,,,0.00,,2013-01-03 00:52:00,
2013-01-02 18:02:00,25.0,14.0,-100.00,South,180,0.0,2.0,62,-99.99,,,0.00,,2013-01-03 01:02:00,
2013-01-02 18:12:00,25.0,15.0,-100.00,North,-999,0.0,0.0,63,-99.99,,,0.00,,2013-01-03 01:12:00,
2013-01-02 18:22:00,25.0,15.0,-100.00,North,-999,0.0,0.0,63,-99.99,,,0.00,,2013-01-03 01:22:00,
2013-01-02 18:32:00,25.0,15.0,-100.00,North,-999,0.0,0.0,63,-99.99,,,0.00,,2013-01-03 01:32:00,
2013-01-02 18:42:00,25.0,15.0,-100.00,North,-999,0.0,0.0,63,-99.99,,,0.00,,2013-01-03 01:42:00,
2013-01-02 18:52:00,25.0,14.0,-100.00,North,5,1.0,4.0,63,-99.99,,,0.00,,2013-01-03 01:52:00,
2013-01-02 19:02:00,25.0,14.0,-100.00,North,5,1.0,4.0,63,-99.99,,,0.00,,2013-01-03 02:02:00,
2013-01-02 19:12:00,25.0,15.0,-100.00,North,0,1.0,3.0,64,-99.99,,,0.00,,2013-01-03 02:12:00,
2013-01-02 19:22:00,25.0,15.0,-100.00,North,0,1.0,3.0,64,-99.99,,,0.00,,2013-01-03 02:22:00,
2013-01-02 19:33:00,25.0,15.0,-100.00,North,0,1.0,3.0,64,-99.99,,,0.00,,2013-01-03 02:33:00,
2013-01-02 19:42:00,25.0,15.0,-100.00,North,0,1.0,3.0,64,-99.99,,,0.00,,2013-01-03 02:42:00,
2013-01-02 20:02:00,25.0,15.0,-100.00,North,5,1.0,2.0,64,-99.99,,,0.00,,2013-01-03 03:02:00,
2013-01-02 20:12:00,25.0,15.0,-100.00,North,0,3.0,4.0,64,-99.99,,,0.00,,2013-01-03 03:12:00,
2013-01-02 20:22:00,25.0,15.0,-100.00,North,0,3.0,4.0,64,-99.99,,,0.00,,2013-01-03 03:22:00,
2013-01-02 20:46:00,25.0,15.0,-100.00,North,0,3.0,4.0,64,-99.99,,,0.00,,2013-01-03 03:46:00,
2013-01-02 20:52:00,25.0,15.0,-100.00,NNE,15,1.0,4.0,64,-99.99,,,0.00,,2013-01-03 03:52:00,
2013-01-02 21:02:00,25.0,15.0,-100.00,NNE,15,1.0,4.0,64,-99.99,,,0.00,,2013-01-03 04:02:00,
2013-01-02 21:12:00,25.0,15.0,-100.00,NNE,30,1.0,1.0,65,-99.99,,,0.00,,2013-01-03 04:12:00,
2013-01-02 21:22:00,25.0,15.0,-100.00,NNE,30,1.0,1.0,65,-99.99,,,0.00,,2013-01-03 04:22:00,
2013-01-02 21:32:00,25.0,15.0,-100.00,NNE,30,1.0,1.0,65,-99.99,,,0.00,,2013-01-03 04:32:00,
2013-01-02 21:42:00,25.0,15.0,-100.00,NNE,30,1.0,1.0,65,-99.99,,,0.00,,2013-01-03 04:42:00,
2013-01-02 21:52:00,25.0,15.0,-100.00,NW,305,2.0,3.0,65,-99.99,,,0.00,,2013-01-03 04:52:00,
2013-01-02 22:03:00,25.0,15.0,-100.00,NW,305,2.0,3.0,65,-99.99,,,0.00,,2013-01-03 05:03:00,
2013-01-02 22:12:00,24.0,15.0,-100.00,NNW,335,3.0,3.0,66,-99.99,,,-99.99,,2013-01-03 05:12:00,
2013-01-02 22:22:00,24.0,15.0,-100.00,NNW,335,3.0,3.0,66,-99.99,,,-99.99,,2013-01-03 05:22:00,
2013-01-02 22:33:00,24.0,15.0,-100.00,NNW,335,3.0,3.0,66,-99.99,,,-99.99,,2013-01-03 05:33:00,
2013-01-02 22:42:00,24.0,15.0,-100.00,NNW,335,3.0,3.0,66,-99.99,,,-99.99,,2013-01-03 05:42:00,
2013-01-02 22:52:00,23.0,14.0,-100.00,NW,315,3.0,3.0,67,-99.99,,,0.00,,2013-01-03 05:52:00,
2013-01-02 23:02:00,23.0,14.0,-100.00,NW,315,3.0,3.0,67,-99.99,,,0.00,,2013-01-03 06:02:00,
2013-01-02 23:12:00,22.0,14.0,-100.00,SE,130,2.0,4.0,69,-99.99,,,0.00,,2013-01-03 06:12:00,
2013-01-02 23:22:00,22.0,14.0,-100.00,SE,130,2.0,4.0,69,-99.99,,,0.00,,2013-01-03 06:22:00,
2013-01-02 23:32:00,22.0,14.0,-100.00,SE,130,2.0,4.0,69,-99.99,,,0.00,,2013-01-03 06:32:00,
2013-01-02 23:42:00,22.0,14.0,-100.00,SE,130,2.0,4.0,69,-99.99,,,0.00,,2013-01-03 06:42:00,
2013-01-02 23:52:00,22.0,14.0,-100.00,ESE,115,2.0,3.0,72,-99.99,,,0.00,,2013-01-03 06:52:00,